RH
33 39 41 44 46 48 50 53 53 52 50 46 39 33 28 17 16 22 23 24 22 25 31 37 85 93 94 90 61 36 28 27 26 26 27 27 27 28 28 30 34 42 48
38 41 44 47 47 53 56 59 62 63 61 60 55 51 45 41 33 26 25 27 31 30 24 32 40 86 91 93 94 91 80 52 33 30 29 28 29 29 29 30 35 52 75
37 41 43 46 49 54 58 60 61 64 64 65 62 62 63 60 55 48 40 33 31 33 35 37 39 39 45 74 88 90 91 88 86 83 65 46 42 40 36 35 40 47 81
46 48 51 52 56 60 62 62 64 66 68 69 68 68 70 71 69 68 64 58 53 47 41 41 41 39 37 40 70 76 84 89 87 82 80 76 72 69 58 50 46 50 54
58 65 67 70 74 79 82 83 83 83 82 80 80 80 80 79 79 79 76 73 70 68 65 59 54 53 56 55 52 61 62 65 70 78 81 77 74 72 72 74 78 77 76
66 74 80 84 88 90 90 91 95 96 96 95 96 93 92 91 87 82 80 82 79 78 77 73 71 68 67 66 66 65 62 58 54 56 63 76 77 70 67 71 70 73 80
74 84 90 92 89 92 92 95 96 97 96 97 100 91 88 86 81 78 80 77 74 71 72 59 61 71 73 74 71 70 70 68 67 66 65 63 62 72 72 77 76 74 77
88 91 90 90 92 94 92 90 92 97 98 90 91 98 99 88 81 79 76 77 76 77 72 67 73 70 58 55 54 54 57 64 70 74 75 72 70 76 81 79 74 73 81
76 79 81 83 85 86 85 86 89 92 85 83 85 98 98 93 85 78 71 72 74 75 77 74 74 74 80 78 74 67 63 60 60 62 65 78 78 78 80 79 78 74 73
71 71 71 71 73 76 77 80 80 87 96 98 96 99 100 100 99 96 92 86 79 83 78 73 66 67 67 73 80 84 81 67 62 65 67 70 83 88 92 90 86 81 75
49 49 49 50 50 52 56 60 62 67 92 100 100 100 100 99 99 100 98 92 94 97 94 89 86 81 79 70 67 67 68 71 66 56 68 73 74 94 95 92 91 84 84
46 45 44 42 40 37 35 35 40 48 56 60 67 74 80 86 95 97 100 100 100 97 85 95 89 93 94 90 86 77 73 70 68 64 58 69 79 92 93 91 90 89 88
33 38 41 41 39 37 34 32 30 29 29 33 41 51 60 65 67 69 80 86 93 83 94 89 84 89 80 79 80 75 80 78 56 53 60 53 66 80 90 85 87 89 88
44 44 44 43 41 38 36 36 36 35 35 36 37 38 49 68 73 78 86 95 98 95 92 89 86 89 89 84 76 75 76 71 60 57 65 61 63 70 81 86 84 77 72
47 46 45 42 37 34 35 37 39 40 46 52 58 62 78 79 74 72 78 84 97 97 89 88 89 86 87 89 90 83 84 77 78 71 68 70 64 64 77 79 81 82 76
42 39 34 28 26 26 28 34 40 44 51 68 78 73 65 64 67 76 83 84 83 92 99 92 95 94 89 85 78 75 74 80 81 81 82 74 71 77 64 78 84 79 80
24 15 8 5 5 6 11 23 33 46 85 86 66 62 66 83 92 82 75 73 66 73 99 84 95 96 96 97 97 93 82 79 74 73 83 86 83 82 84 76 84 85 80
2 2 3 3 3 4 6 13 19 47 65 42 49 66 76 76 50 40 39 46 43 67 98 100 88 96 100 98 93 93 95 94 89 78 78 82 81 87 92 86 88 86 86
3 3 3 4 4 5 5 7 13 32 35 33 48 73 79 49 40 33 26 80 80 32 36 72 93 90 90 98 97 92 93 93 84 96 93 89 90 87 85 97 86 93 91
5 5 6 6 6 6 7 9 12 24 32 45 64 81 63 54 46 28 62 100 71 34 63 88 86 94 93 93 98 100 97 100 98 86 82 72 85 85 92 86 79 86 100
7 7 7 7 7 7 8 10 14 35 75 76 63 52 44 44 38 40 82 80 80 70 90 94 96 98 98 95 99 99 98 99 99 99 95 78 71 87 91 88 93 86 99
8 9 9 9 9 11 12 15 33 65 79 57 47 41 35 31 30 56 67 65 87 100 97 98 94 100 97 100 100 100 100 100 99 96 100 98 94 85 85 84 82 83 98
11 11 11 12 13 15 18 26 49 69 56 46 49 51 43 53 64 84 84 91 98 100 91 98 99 95 99 100 100 100 100 100 100 98 100 100 100 94 91 88 93 95 98
13 14 14 17 19 20 25 43 65 66 70 73 75 69 82 91 87 91 89 92 97 82 54 82 100 100 98 96 100 100 99 100 99 98 100 100 100 98 98 95 100 100 100
16 17 21 23 25 28 41 61 85 88 84 80 79 91 95 92 92 90 85 90 88 87 90 95 99 96 97 98 100 100 100 100 99 100 99 99 100 100 99 100 100 100 100
21 24 26 31 36 46 60 90 91 90 92 98 96 94 85 93 91 92 90 93 98 96 99 95 93 98 100 99 100 100 100 100 100 100 97 100 98 100 99 99 100 100 100
Wind_Speed
15 16 17 18 18 19 19 20 21 22 22 22 22 24 24 25 28 29 31 31 33 36 36 36 33 32 33 33 33 33 33 32 31 30 29 28 28 27 26 27 27 26 26
19 20 22 23 23 23 23 25 26 27 28 27 27 26 28 28 29 31 33 34 35 37 39 39 39 36 35 36 36 37 37 37 36 35 34 33 33 31 31 30 30 30 29
22 22 24 26 27 28 29 30 31 32 33 33 34 32 31 32 33 34 34 36 37 38 41 42 43 43 42 41 39 40 41 41 40 40 39 38 38 37 36 35 34 33 31
24 26 27 29 30 31 32 33 34 36 38 38 38 38 38 37 37 37 37 38 40 40 40 42 45 46 47 47 43 43 43 44 44 44 44 43 42 42 41 40 39 38 36
26 27 29 30 31 32 34 35 36 37 39 41 41 41 41 41 41 41 42 42 43 43 43 44 45 46 47 49 49 47 48 48 48 48 47 47 47 46 45 43 42 41 40
26 28 29 30 30 32 33 34 35 35 37 38 40 42 43 44 44 43 43 45 46 46 45 46 47 48 47 48 49 50 51 52 51 51 51 51 50 50 49 48 47 45 44
26 28 30 29 28 30 30 32 34 35 35 34 37 38 39 41 42 43 41 40 40 39 37 36 37 40 44 46 46 46 46 48 49 49 50 52 52 52 51 50 50 49 47
24 26 26 27 28 30 30 30 32 35 36 30 35 34 28 32 35 36 36 36 35 32 31 33 36 36 32 33 35 35 38 40 42 46 49 50 50 52 51 51 52 51 49
17 18 20 21 22 24 27 27 28 30 35 34 37 35 20 19 30 36 39 40 41 40 39 40 39 39 38 37 37 37 38 38 37 38 40 45 46 48 50 50 51 52 50
11 12 14 16 17 19 21 21 22 25 29 34 33 36 38 40 28 31 32 33 40 42 46 46 44 42 42 44 43 39 38 38 39 39 40 40 42 43 44 46 47 48 47
11 13 14 16 18 19 20 21 23 23 25 30 33 37 37 39 42 41 36 32 34 41 45 45 44 46 46 44 45 45 41 36 33 39 42 41 41 40 41 42 44 43 44
19 20 21 21 22 23 24 24 24 25 26 27 28 29 30 32 33 33 33 35 35 37 44 47 46 46 46 46 47 46 44 39 36 33 37 43 44 43 42 42 44 43 43
25 26 26 26 27 27 29 30 30 29 28 29 29 30 32 33 33 35 35 40 37 41 37 42 42 44 46 47 47 46 48 45 40 41 35 39 43 46 46 45 44 43 44
24 26 28 29 30 31 32 31 32 32 32 32 32 31 31 30 29 29 31 35 38 38 35 35 34 38 41 45 50 49 47 47 49 47 43 39 41 42 46 48 47 48 45
29 31 33 34 35 36 35 34 34 33 32 32 31 30 29 32 33 31 31 30 32 38 40 38 35 35 37 39 43 46 50 49 48 46 46 41 40 43 45 47 48 49 49
32 33 34 34 34 34 34 33 33 33 31 29 30 34 35 34 33 32 31 33 34 35 38 41 38 37 39 41 44 44 45 49 52 52 50 48 43 43 44 47 46 48 50
31 32 33 34 34 34 34 33 33 31 27 31 36 36 34 29 27 30 33 36 39 36 35 51 43 40 39 38 40 41 43 44 45 48 50 49 47 45 44 45 44 43 48
32 33 33 33 34 34 33 33 33 30 34 38 37 34 29 29 31 33 34 37 37 36 34 37 49 46 38 38 41 41 40 41 41 42 44 46 48 48 50 49 47 46 47
30 30 31 33 34 34 34 33 31 34 37 39 37 30 28 32 31 35 34 30 30 37 38 36 40 43 47 42 40 43 41 41 39 38 39 41 44 49 50 45 48 50 48
29 31 32 33 35 36 36 35 35 35 37 37 30 27 31 31 34 37 33 31 38 40 36 35 35 40 41 43 38 38 38 35 36 40 38 42 40 43 43 38 44 55 52
30 31 33 34 34 34 34 35 35 35 35 36 36 38 39 40 41 37 30 39 41 38 35 38 36 36 40 40 37 39 41 40 43 37 42 38 42 41 43 45 37 41 55
31 33 34 35 36 35 34 32 31 30 36 41 46 47 45 47 44 36 38 39 34 32 36 36 37 38 44 40 41 39 42 44 46 37 30 34 36 44 43 46 42 39 43
35 36 36 36 36 36 34 31 30 33 41 44 43 44 44 39 36 35 39 38 40 38 35 36 38 39 44 43 44 44 40 40 43 48 43 44 39 49 48 47 45 45 45
36 36 37 36 36 36 33 30 32 36 38 39 39 37 38 38 38 36 40 43 44 49 45 38 36 39 44 47 44 45 50 49 49 49 43 43 41 46 46 41 39 37 45
36 36 36 36 36 36 32 32 33 35 37 38 37 38 37 38 37 38 42 46 49 47 42 37 41 45 41 45 38 37 41 39 41 39 39 43 40 40 39 38 32 34 43
35 36 37 36 35 35 35 31 31 32 36 37 39 39 38 37 39 39 43 45 44 39 37 44 48 46 40 38 30 30 35 40 42 35 35 36 38 36 21 27 30 30 32
Wind_Direction
273 274 277 281 286 291 293 298 300 299 296 295 290 285 280 274 269 264 263 260 259 256 257 258 255 255 257 257 257 257 258 259 260 261 262 262 262 263 263 263 262 260 258
281 282 285 287 289 292 294 296 297 295 293 290 289 287 285 282 278 272 269 267 262 261 259 259 259 255 255 258 259 261 263 261 261 261 263 264 264 263 264 264 263 260 257
286 289 290 289 291 294 296 296 295 294 292 292 290 290 288 286 283 280 275 273 270 264 263 262 263 262 259 256 256 258 259 263 265 266 264 263 265 266 265 264 264 264 258
289 292 294 297 300 298 298 296 296 293 292 291 291 291 289 287 286 283 281 277 274 273 270 267 265 265 265 264 259 258 258 259 262 263 264 267 267 266 266 266 265 263 263
293 295 299 303 302 299 297 296 294 293 293 293 293 292 291 289 287 285 282 280 279 277 276 274 271 268 267 267 266 263 261 259 258 260 261 262 263 265 266 265 262 261 260
299 299 300 303 302 299 297 297 296 295 293 292 292 292 292 292 292 286 283 282 280 280 279 277 276 274 271 269 268 268 268 267 265 263 260 259 260 261 263 263 262 261 260
295 296 296 297 299 297 298 299 299 298 297 298 295 295 295 293 293 292 293 292 289 287 288 284 282 277 275 275 273 270 268 267 267 266 266 265 262 260 260 260 260 259 259
291 292 293 295 296 296 296 297 299 300 298 301 293 292 289 294 294 296 297 294 293 291 284 285 289 287 286 284 282 280 275 272 271 269 268 266 265 262 259 258 258 258 256
302 300 299 300 301 302 299 300 303 302 299 297 294 285 280 281 292 292 293 290 288 288 285 287 287 288 289 287 287 284 282 276 274 275 269 263 261 263 262 261 259 257 254
320 319 318 317 316 319 316 309 305 305 305 303 303 297 294 286 280 287 284 283 287 281 283 284 284 284 288 289 288 287 286 281 272 267 268 267 262 260 259 258 257 257 254
341 335 333 331 328 327 324 319 314 310 303 300 296 294 289 287 285 276 282 283 280 283 287 285 285 285 286 286 289 289 289 288 283 271 263 263 265 260 258 255 254 253 251
328 325 322 321 319 317 316 315 311 307 306 304 302 300 297 299 294 295 286 283 284 284 290 285 285 288 288 290 289 287 285 285 282 280 271 260 258 260 258 254 252 250 249
327 324 323 321 320 318 314 312 310 308 304 301 300 301 300 301 301 300 299 296 292 291 284 285 283 279 286 288 287 287 289 285 285 282 278 267 260 258 259 260 253 248 247
323 320 318 318 318 317 316 313 311 309 308 306 305 303 304 303 302 299 298 296 297 294 292 285 285 285 285 288 289 290 288 282 279 278 277 272 263 260 255 256 258 255 251
322 321 320 321 321 321 321 319 317 315 314 316 314 312 310 306 308 311 310 307 300 297 295 295 293 290 288 285 284 285 286 286 279 280 275 272 269 262 258 254 254 255 255
322 323 324 324 325 325 325 325 324 322 321 317 314 312 310 312 311 310 312 310 307 304 300 299 297 295 293 290 288 285 283 281 285 285 286 282 271 269 265 259 255 254 253
328 328 327 326 326 325 325 325 326 327 324 315 315 317 317 318 314 313 315 313 311 311 304 298 298 298 295 294 292 288 287 284 283 282 282 280 282 277 269 263 261 256 254
329 329 329 328 328 328 326 325 325 326 317 321 322 324 320 319 318 321 321 315 312 311 311 302 302 304 299 297 292 290 286 288 288 285 285 282 281 279 276 263 262 263 254
331 333 334 336 336 334 332 329 325 318 319 321 326 323 319 320 323 322 323 315 312 312 308 307 298 293 295 299 300 297 296 294 289 288 291 288 285 285 278 267 264 263 258
336 336 336 335 334 332 332 330 327 323 320 321 327 323 316 320 323 325 320 307 311 317 315 310 307 302 301 301 300 303 305 299 298 297 293 296 292 289 276 270 278 269 262
334 333 331 329 328 327 326 325 323 323 323 318 315 318 317 316 317 321 306 306 312 315 312 311 309 305 301 304 302 302 300 299 297 291 293 296 291 284 275 274 268 268 254
330 331 331 330 328 326 325 323 322 325 315 314 316 315 315 315 318 314 307 307 308 309 307 306 302 303 303 302 302 298 296 296 294 295 287 283 290 285 284 274 273 277 264
332 332 330 329 326 325 325 321 320 318 315 317 317 316 318 322 324 320 315 313 309 308 303 299 298 304 302 300 301 299 296 289 285 285 287 284 285 285 280 282 273 266 259
330 330 328 328 326 325 325 322 322 318 317 318 321 323 323 324 321 316 313 310 309 307 306 309 303 300 298 300 296 290 292 288 286 288 286 279 282 278 280 277 269 258 232
328 328 328 327 327 326 329 326 325 323 322 323 323 320 321 318 318 316 312 310 309 309 313 307 302 305 299 300 295 293 288 281 280 281 281 284 278 270 263 256 242 221 213
329 329 327 330 329 329 331 326 326 323 321 319 318 325 321 318 318 317 314 310 307 313 312 308 304 310 310 308 303 291 289 287 283 286 281 265 271 253 239 238 209 197 196